GFSCGP_prec_precacc24_276.txt.gz
Total_Precipitation_Accumulation
0.00 0.00 0.00 0.00 0.00 0.00 0.00 0.00 0.00 0.00 0.00 0.00 0.00 0.00 0.00 0.00 0.00 0.00 0.02 0.37 0.43 0.07 0.03 0.02 0.05 0.04 0.07 0.15 0.18 0.20 0.05 0.07 0.17 0.20 0.10 0.07 0.17 0.25 0.36 0.54 0.32 0.14 0.10 0.23
0.00 0.00 0.00 0.00 0.00 0.00 0.00 0.00 0.00 0.00 0.00 0.00 0.00 0.00 0.00 0.00 0.00 0.00 0.00 0.06 0.29 0.10 0.02 0.00 0.03 0.02 0.04 0.05 0.07 0.17 0.15 0.11 0.14 0.23 0.31 0.27 0.43 1.06 0.87 0.66 0.24 0.17 0.19 0.26
0.00 0.00 0.00 0.00 0.00 0.00 0.00 0.00 0.00 0.00 0.00 0.00 0.00 0.00 0.00 0.00 0.00 0.00 0.00 0.02 0.12 0.09 0.00 0.01 0.01 0.02 0.02 0.06 0.05 0.08 0.15 0.24 0.07 0.14 0.17 0.21 0.88 2.19 1.31 0.52 0.35 0.22 0.31 0.25
0.00 0.00 0.00 0.00 0.00 0.01 0.02 0.01 0.00 0.00 0.00 0.00 0.00 0.00 0.00 0.01 0.03 0.00 0.00 0.00 0.08 0.18 0.01 0.02 0.01 0.00 0.00 0.05 0.05 0.05 0.07 0.17 0.10 0.13 0.34 0.89 1.98 1.57 0.54 0.16 0.08 0.06 0.14 0.25
0.00 0.00 0.00 0.00 0.00 0.00 0.01 0.00 0.00 0.00 0.00 0.00 0.00 0.00 0.00 0.00 0.03 0.04 0.00 0.00 0.11 0.53 0.16 0.07 0.01 0.00 0.00 0.02 0.06 0.07 0.07 0.13 0.20 0.23 0.52 1.15 1.03 0.48 0.27 0.32 0.24 0.10 0.07 0.16
0.00 0.00 0.00 0.00 0.00 0.00 0.00 0.01 0.00 0.00 0.00 0.00 0.00 0.00 0.00 0.00 0.06 0.05 0.00 0.02 0.05 0.35 0.13 0.04 0.00 0.00 0.00 0.00 0.01 0.05 0.07 0.14 0.25 0.46 0.20 0.47 0.42 0.27 0.16 0.09 0.05 0.02 0.07 0.11
0.00 0.00 0.00 0.00 0.00 0.00 0.00 0.00 0.00 0.00 0.00 0.00 0.00 0.01 0.00 0.00 0.00 0.00 0.01 0.04 0.02 0.00 0.01 0.01 0.00 0.00 0.00 0.00 0.01 0.03 0.05 0.13 0.12 0.14 0.15 0.14 0.13 0.05 0.03 0.01 0.02 0.00 0.04 0.07
0.00 0.00 0.00 0.00 0.00 0.00 0.00 0.00 0.01 0.00 0.01 0.01 0.00 0.01 0.00 0.00 0.00 0.00 0.02 0.02 0.01 0.00 0.00 0.00 0.00 0.00 0.00 0.00 0.00 0.01 0.05 0.06 0.07 0.05 0.05 0.05 0.02 0.01 0.01 0.02 0.00 0.00 0.02 0.06
0.00 0.00 0.00 0.00 0.00 0.00 0.00 0.00 0.02 0.00 0.00 0.00 0.00 0.00 0.00 0.00 0.00 0.00 0.00 0.01 0.01 0.00 0.00 0.00 0.00 0.00 0.00 0.00 0.00 0.00 0.00 0.00 0.01 0.00 0.01 0.00 0.00 0.01 0.01 0.00 0.00 0.02 0.01 0.02
0.00 0.00 0.00 0.00 0.00 0.00 0.00 0.01 0.00 0.00 0.00 0.00 0.00 0.00 0.00 0.01 0.00 0.00 0.00 0.01 0.01 0.00 0.01 0.00 0.00 0.00 0.00 0.00 0.00 0.00 0.00 0.00 0.01 0.02 0.03 0.01 0.00 0.01 0.00 0.00 0.00 0.00 0.05 0.04
0.00 0.00 0.00 0.00 0.00 0.00 0.00 0.00 0.00 0.00 0.00 0.00 0.00 0.00 0.00 0.02 0.02 0.02 0.03 0.04 0.03 0.01 0.00 0.00 0.00 0.00 0.01 0.00 0.00 0.00 0.00 0.00 0.02 0.05 0.04 0.03 0.02 0.01 0.01 0.00 0.00 0.00 0.01 0.04
0.00 0.00 0.00 0.00 0.00 0.00 0.00 0.00 0.00 0.00 0.00 0.00 0.00 0.00 0.00 0.01 0.00 0.00 0.01 0.05 0.09 0.08 0.00 0.00 0.02 0.07 0.08 0.07 0.03 0.00 0.01 0.01 0.02 0.06 0.04 0.02 0.02 0.03 0.03 0.03 0.04 0.05 0.03 0.06
0.00 0.00 0.00 0.00 0.00 0.00 0.00 0.00 0.00 0.00 0.00 0.00 0.00 0.00 0.01 0.00 0.00 0.01 0.07 0.06 0.06 0.15 0.01 0.07 0.14 0.18 0.18 0.13 0.10 0.07 0.04 0.05 0.06 0.02 0.02 0.00 0.01 0.00 0.00 0.01 0.02 0.10 0.16 0.20
0.00 0.00 0.00 0.01 0.01 0.00 0.00 0.01 0.00 0.00 0.00 0.00 0.00 0.02 0.05 0.01 0.01 0.01 0.02 0.01 0.02 0.22 0.08 0.13 0.18 0.29 0.30 0.25 0.27 0.25 0.19 0.12 0.02 0.00 0.00 0.00 0.00 0.00 0.02 0.08 0.03 0.03 0.04 0.05
0.00 0.00 0.00 0.00 0.00 0.00 0.00 0.00 0.00 0.00 0.00 0.01 0.02 0.08 0.12 0.16 0.05 0.00 0.03 0.04 0.09 0.15 0.19 0.30 0.49 0.73 0.71 0.56 0.33 0.24 0.16 0.08 0.01 0.02 0.00 0.00 0.01 0.05 0.11 0.11 0.07 0.12 0.09 0.04
0.00 0.00 0.00 0.00 0.00 0.00 0.00 0.00 0.00 0.00 0.00 0.00 0.00 0.00 0.02 0.04 0.00 0.00 0.00 0.01 0.05 0.17 0.27 0.86 1.89 1.58 0.64 0.28 0.18 0.13 0.13 0.11 0.12 0.08 0.01 0.01 0.05 0.20 0.18 0.17 0.19 0.14 0.05 0.03
0.00 0.00 0.00 0.00 0.00 0.00 0.00 0.00 0.00 0.00 0.00 0.00 0.00 0.00 0.00 0.03 0.13 0.03 0.00 0.00 0.00 0.20 0.73 2.02 1.52 0.29 0.06 0.15 0.13 0.23 0.36 0.35 0.25 0.08 0.02 0.05 0.15 0.22 0.17 0.23 0.14 0.07 0.05 0.03
0.00 0.00 0.00 0.00 0.00 0.01 0.00 0.00 0.00 0.00 0.00 0.00 0.00 0.00 0.00 0.09 0.14 0.00 0.00 0.00 0.01 0.10 0.24 0.90 0.57 0.10 0.11 0.31 0.60 0.82 0.60 0.38 0.38 0.20 0.16 0.15 0.19 0.35 0.36 0.17 0.07 0.04 0.03 0.02
0.00 0.00 0.00 0.00 0.01 0.02 0.00 0.00 0.00 0.00 0.00 0.00 0.00 0.00 0.01 0.01 0.01 0.02 0.00 0.01 0.05 0.13 0.34 0.34 0.10 0.05 0.15 0.56 1.08 0.67 0.66 1.07 0.50 0.24 0.25 0.34 0.41 0.27 0.08 0.03 0.02 0.01 0.01 0.01
0.01 0.01 0.00 0.00 0.00 0.00 0.00 0.00 0.00 0.00 0.00 0.00 0.00 0.00 0.00 0.01 0.09 0.28 0.06 0.06 0.13 0.23 0.45 0.35 0.10 0.03 0.15 0.42 0.74 0.73 0.61 0.43 0.36 0.44 0.35 0.16 0.04 0.01 0.00 0.00 0.00 0.00 0.00 0.00
0.01 0.00 0.00 0.00 0.00 0.00 0.02 0.00 0.00 0.01 0.03 0.01 0.01 0.00 0.01 0.01 0.03 0.08 0.12 0.21 0.32 0.52 0.50 0.27 0.14 0.16 0.23 0.40 0.42 0.46 0.54 0.47 0.21 0.06 0.02 0.00 0.00 0.00 0.00 0.00 0.00 0.00 0.00 0.00
0.01 0.01 0.01 0.00 0.00 0.00 0.00 0.02 0.01 0.01 0.08 0.13 0.09 0.06 0.05 0.04 0.13 0.31 0.45 0.68 0.71 0.79 0.59 0.35 0.32 0.51 0.45 0.40 0.35 0.27 0.14 0.03 0.00 0.00 0.00 0.00 0.00 0.00 0.00 0.00 0.00 0.00 0.00 0.00
0.05 0.05 0.02 0.02 0.03 0.07 0.02 0.07 0.10 0.07 0.14 0.41 0.80 0.49 0.15 0.04 0.08 0.23 0.38 0.34 0.28 0.23 0.19 0.26 0.31 0.19 0.12 0.07 0.03 0.01 0.00 0.00 0.00 0.00 0.00 0.00 0.00 0.00 0.00 0.00 0.00 0.00 0.00 0.00
0.14 0.09 0.04 0.09 0.26 0.26 0.03 0.03 0.13 0.25 0.32 0.12 0.16 0.26 0.25 0.08 0.09 0.08 0.06 0.06 0.06 0.05 0.03 0.04 0.04 0.03 0.01 0.00 0.00 0.00 0.00 0.00 0.00 0.00 0.00 0.00 0.00 0.00 0.00 0.00 0.00 0.00 0.00 0.00
0.22 0.11 0.05 0.01 0.02 0.03 0.02 0.01 0.00 0.01 0.02 0.01 0.04 0.03 0.00 0.01 0.03 0.03 0.03 0.02 0.02 0.00 0.00 0.00 0.00 0.00 0.00 0.00 0.00 0.00 0.00 0.00 0.00 0.00 0.00 0.00 0.00 0.00 0.00 0.00 0.00 0.00 0.00 0.00
0.07 0.07 0.04 0.09 0.20 0.05 0.01 0.01 0.02 0.03 0.07 0.08 0.06 0.03 0.01 0.00 0.00 0.00 0.00 0.00 0.01 0.00 0.00 0.00 0.00 0.00 0.00 0.00 0.00 0.00 0.00 0.00 0.00 0.00 0.00 0.00 0.00 0.00 0.00 0.00 0.00 0.00 0.00 0.00

GFSCGP_prec_precacc24_279.txt.gz
Total_Precipitation_Accumulation
0.00 0.00 0.00 0.00 0.00 0.00 0.00 0.00 0.00 0.00 0.00 0.00 0.00 0.00 0.00 0.00 0.00 0.00 0.02 0.36 0.42 0.07 0.02 0.01 0.03 0.03 0.07 0.16 0.18 0.20 0.04 0.00 0.06 0.13 0.09 0.05 0.17 0.28 0.44 0.58 0.33 0.15 0.10 0.23
0.00 0.00 0.00 0.00 0.00 0.00 0.00 0.00 0.00 0.00 0.00 0.00 0.00 0.00 0.00 0.00 0.00 0.00 0.00 0.06 0.28 0.10 0.02 0.00 0.01 0.02 0.02 0.05 0.09 0.14 0.09 0.09 0.14 0.19 0.28 0.25 0.37 1.08 0.89 0.67 0.26 0.17 0.18 0.26
0.00 0.00 0.00 0.00 0.00 0.00 0.00 0.00 0.00 0.00 0.00 0.00 0.00 0.00 0.00 0.00 0.00 0.00 0.00 0.03 0.12 0.09 0.00 0.00 0.00 0.00 0.01 0.04 0.03 0.07 0.09 0.10 0.06 0.14 0.20 0.21 0.83 2.06 1.31 0.52 0.36 0.26 0.28 0.20
0.00 0.00 0.00 0.00 0.00 0.01 0.02 0.01 0.00 0.00 0.00 0.00 0.00 0.00 0.00 0.01 0.03 0.00 0.00 0.00 0.08 0.19 0.01 0.02 0.01 0.00 0.00 0.03 0.04 0.05 0.06 0.11 0.04 0.03 0.25 0.73 1.52 1.30 0.48 0.13 0.07 0.06 0.06 0.15
0.00 0.00 0.00 0.00 0.00 0.00 0.01 0.00 0.00 0.00 0.00 0.00 0.00 0.00 0.00 0.00 0.03 0.04 0.00 0.00 0.11 0.54 0.16 0.07 0.01 0.00 0.00 0.02 0.02 0.05 0.04 0.07 0.12 0.05 0.23 0.61 0.73 0.34 0.18 0.15 0.08 0.03 0.06 0.13
0.00 0.00 0.00 0.00 0.00 0.00 0.00 0.01 0.00 0.00 0.00 0.00 0.00 0.00 0.00 0.00 0.06 0.05 0.00 0.02 0.06 0.36 0.14 0.04 0.00 0.00 0.00 0.01 0.01 0.02 0.02 0.04 0.08 0.11 0.03 0.17 0.23 0.15 0.14 0.07 0.02 0.00 0.00 0.03
0.00 0.00 0.00 0.00 0.00 0.00 0.00 0.00 0.00 0.00 0.00 0.00 0.00 0.01 0.00 0.00 0.00 0.00 0.01 0.04 0.02 0.01 0.01 0.01 0.00 0.00 0.00 0.00 0.00 0.01 0.01 0.03 0.04 0.06 0.04 0.09 0.11 0.04 0.03 0.02 0.02 0.00 0.00 0.00
0.00 0.00 0.00 0.00 0.00 0.00 0.00 0.00 0.01 0.00 0.01 0.01 0.00 0.01 0.00 0.00 0.00 0.00 0.02 0.02 0.01 0.00 0.00 0.00 0.00 0.00 0.00 0.00 0.00 0.01 0.01 0.00 0.00 0.01 0.02 0.04 0.02 0.01 0.01 0.02 0.00 0.00 0.00 0.01
0.00 0.00 0.00 0.00 0.00 0.00 0.00 0.00 0.02 0.00 0.00 0.00 0.00 0.00 0.00 0.00 0.00 0.00 0.00 0.01 0.01 0.00 0.00 0.00 0.00 0.00 0.00 0.00 0.00 0.00 0.00 0.00 0.00 0.00 0.00 0.00 0.00 0.02 0.01 0.00 0.00 0.00 0.00 0.00
0.00 0.00 0.00 0.00 0.00 0.00 0.00 0.01 0.00 0.00 0.00 0.00 0.00 0.00 0.00 0.01 0.00 0.00 0.00 0.01 0.01 0.00 0.01 0.00 0.00 0.00 0.00 0.00 0.00 0.00 0.00 0.00 0.01 0.01 0.01 0.02 0.05 0.04 0.00 0.00 0.00 0.00 0.00 0.00
0.00 0.00 0.00 0.00 0.00 0.00 0.00 0.00 0.00 0.00 0.00 0.00 0.00 0.00 0.00 0.02 0.02 0.02 0.03 0.04 0.03 0.03 0.00 0.00 0.00 0.00 0.01 0.00 0.00 0.00 0.00 0.00 0.02 0.02 0.01 0.03 0.02 0.00 0.00 0.00 0.00 0.00 0.00 0.02
0.00 0.00 0.00 0.00 0.00 0.00 0.00 0.00 0.00 0.00 0.00 0.00 0.00 0.00 0.00 0.01 0.00 0.00 0.01 0.05 0.09 0.09 0.06 0.07 0.02 0.07 0.08 0.07 0.03 0.00 0.01 0.00 0.01 0.02 0.01 0.01 0.01 0.00 0.00 0.00 0.00 0.00 0.00 0.04
0.00 0.00 0.00 0.00 0.00 0.00 0.00 0.00 0.00 0.00 0.00 0.00 0.00 0.00 0.01 0.00 0.00 0.01 0.07 0.06 0.06 0.15 0.03 0.12 0.14 0.18 0.18 0.12 0.10 0.07 0.04 0.05 0.04 0.00 0.00 0.00 0.00 0.00 0.00 0.01 0.01 0.03 0.04 0.03
0.00 0.00 0.00 0.01 0.01 0.00 0.00 0.00 0.00 0.00 0.00 0.00 0.00 0.02 0.05 0.01 0.01 0.01 0.02 0.01 0.02 0.22 0.08 0.13 0.18 0.29 0.30 0.25 0.26 0.23 0.17 0.10 0.02 0.00 0.00 0.00 0.00 0.00 0.02 0.08 0.04 0.05 0.08 0.04
0.00 0.00 0.00 0.00 0.00 0.00 0.00 0.00 0.00 0.00 0.00 0.01 0.02 0.08 0.12 0.16 0.05 0.00 0.03 0.04 0.09 0.15 0.09 0.17 0.40 0.72 0.70 0.56 0.32 0.24 0.20 0.16 0.18 0.08 0.00 0.00 0.01 0.05 0.11 0.11 0.08 0.14 0.11 0.04
0.00 0.00 0.00 0.00 0.00 0.00 0.00 0.00 0.00 0.00 0.00 0.00 0.00 0.00 0.02 0.04 0.00 0.00 0.00 0.01 0.05 0.10 0.02 0.12 0.84 1.28 0.57 0.28 0.37 0.76 0.89 1.07 0.91 0.40 0.03 0.01 0.05 0.20 0.18 0.17 0.21 0.18 0.07 0.03
0.00 0.00 0.00 0.00 0.00 0.00 0.00 0.00 0.00 0.00 0.00 0.00 0.00 0.00 0.00 0.03 0.13 0.03 0.00 0.00 0.00 0.00 0.00 0.02 0.19 0.13 0.05 0.36 0.83 1.10 1.20 1.06 0.75 0.27 0.08 0.16 0.30 0.25 0.18 0.25 0.16 0.08 0.05 0.03
0.00 0.00 0.00 0.00 0.00 0.01 0.00 0.00 0.00 0.00 0.00 0.00 0.00 0.00 0.00 0.09 0.14 0.00 0.00 0.00 0.00 0.00 0.04 0.24 0.27 0.07 0.13 0.50 0.90 1.30 1.03 0.61 0.50 0.47 0.47 0.38 0.35 0.43 0.40 0.17 0.07 0.04 0.03 0.02
0.00 0.00 0.00 0.00 0.01 0.02 0.00 0.00 0.00 0.00 0.00 0.00 0.00 0.00 0.01 0.01 0.01 0.02 0.00 0.00 0.00 0.07 0.24 0.31 0.11 0.05 0.24 0.74 1.25 0.79 0.69 1.09 0.60 0.44 0.35 0.44 0.49 0.32 0.08 0.03 0.02 0.01 0.01 0.01
0.01 0.01 0.00 0.00 0.00 0.00 0.00 0.00 0.00 0.00 0.00 0.00 0.00 0.00 0.00 0.01 0.09 0.28 0.06 0.00 0.06 0.18 0.43 0.34 0.11 0.07 0.36 0.61 0.81 0.74 0.62 0.45 0.48 0.57 0.39 0.20 0.06 0.01 0.00 0.00 0.00 0.00 0.00 0.00
0.00 0.00 0.00 0.00 0.00 0.00 0.02 0.00 0.00 0.01 0.03 0.01 0.01 0.00 0.00 0.01 0.03 0.08 0.09 0.13 0.28 0.50 0.49 0.29 0.16 0.31 0.54 0.56 0.47 0.47 0.52 0.53 0.29 0.08 0.03 0.01 0.00 0.00 0.00 0.00 0.00 0.00 0.00 0.00
0.01 0.01 0.01 0.00 0.00 0.00 0.00 0.02 0.01 0.01 0.08 0.13 0.09 0.04 0.02 0.04 0.13 0.32 0.42 0.64 0.69 0.78 0.63 0.42 0.46 0.70 0.62 0.52 0.40 0.29 0.23 0.09 0.01 0.00 0.00 0.00 0.00 0.00 0.00 0.00 0.00 0.00 0.00 0.00
0.05 0.05 0.02 0.02 0.03 0.07 0.02 0.07 0.10 0.06 0.13 0.41 0.80 0.50 0.20 0.07 0.08 0.23 0.37 0.35 0.29 0.26 0.26 0.34 0.41 0.24 0.16 0.09 0.06 0.02 0.01 0.00 0.00 0.00 0.00 0.00 0.00 0.00 0.00 0.00 0.00 0.00 0.00 0.00
0.14 0.09 0.04 0.09 0.26 0.26 0.03 0.03 0.13 0.25 0.32 0.12 0.17 0.27 0.28 0.12 0.13 0.08 0.06 0.08 0.08 0.08 0.08 0.09 0.08 0.05 0.02 0.00 0.00 0.00 0.00 0.00 0.00 0.00 0.00 0.00 0.00 0.00 0.00 0.00 0.00 0.00 0.00 0.00
0.22 0.11 0.05 0.01 0.02 0.05 0.03 0.01 0.00 0.01 0.02 0.01 0.04 0.02 0.00 0.01 0.03 0.03 0.03 0.05 0.08 0.05 0.03 0.02 0.01 0.00 0.00 0.00 0.00 0.00 0.00 0.00 0.00 0.00 0.00 0.00 0.00 0.00 0.00 0.00 0.00 0.00 0.00 0.00
0.07 0.07 0.05 0.09 0.21 0.06 0.02 0.02 0.02 0.03 0.07 0.08 0.06 0.03 0.01 0.00 0.00 0.00 0.01 0.02 0.02 0.02 0.00 0.00 0.00 0.00 0.00 0.00 0.00 0.00 0.00 0.00 0.00 0.00 0.00 0.00 0.00 0.00 0.00 0.00 0.00 0.00 0.00 0.00

GFSCGP_prec_precacc24_285.txt.gz
Total_Precipitation_Accumulation
0.00 0.00 0.00 0.00 0.00 0.00 0.00 0.00 0.00 0.00 0.00 0.00 0.00 0.00 0.00 0.00 0.00 0.00 0.02 0.36 0.42 0.07 0.02 0.01 0.00 0.02 0.06 0.16 0.17 0.19 0.08 0.01 0.06 0.10 0.07 0.06 0.25 0.27 0.26 0.38 0.29 0.15 0.06 0.19
0.00 0.00 0.00 0.00 0.00 0.00 0.00 0.00 0.00 0.00 0.00 0.00 0.00 0.00 0.00 0.00 0.00 0.00 0.00 0.05 0.28 0.10 0.02 0.00 0.00 0.01 0.01 0.05 0.09 0.14 0.08 0.04 0.09 0.06 0.05 0.20 0.28 0.58 0.41 0.43 0.20 0.08 0.08 0.15
0.00 0.00 0.00 0.00 0.00 0.00 0.00 0.00 0.00 0.00 0.00 0.00 0.00 0.00 0.00 0.00 0.00 0.00 0.00 0.02 0.12 0.09 0.00 0.00 0.00 0.00 0.01 0.01 0.03 0.07 0.07 0.04 0.01 0.05 0.07 0.17 0.55 0.71 0.54 0.17 0.06 0.15 0.10 0.15
0.00 0.00 0.00 0.00 0.00 0.01 0.02 0.01 0.00 0.00 0.00 0.00 0.00 0.00 0.00 0.01 0.03 0.00 0.00 0.00 0.08 0.19 0.01 0.02 0.01 0.00 0.00 0.01 0.02 0.03 0.03 0.01 0.00 0.00 0.14 0.31 0.39 0.37 0.20 0.04 0.04 0.08 0.06 0.16
0.00 0.00 0.00 0.00 0.00 0.00 0.01 0.00 0.00 0.00 0.00 0.00 0.00 0.00 0.00 0.00 0.03 0.04 0.00 0.00 0.11 0.54 0.16 0.07 0.01 0.01 0.01 0.01 0.01 0.02 0.00 0.00 0.00 0.00 0.13 0.21 0.20 0.17 0.10 0.12 0.08 0.04 0.07 0.14
0.00 0.00 0.00 0.00 0.00 0.00 0.00 0.01 0.00 0.00 0.00 0.00 0.00 0.00 0.00 0.00 0.06 0.05 0.00 0.02 0.06 0.36 0.14 0.04 0.00 0.00 0.03 0.01 0.01 0.01 0.00 0.00 0.01 0.01 0.01 0.06 0.13 0.15 0.17 0.09 0.03 0.00 0.00 0.03
0.00 0.00 0.00 0.00 0.00 0.00 0.00 0.00 0.00 0.00 0.00 0.00 0.00 0.01 0.00 0.00 0.00 0.00 0.01 0.04 0.02 0.01 0.01 0.01 0.00 0.00 0.00 0.00 0.00 0.00 0.00 0.00 0.00 0.01 0.01 0.03 0.06 0.08 0.05 0.02 0.03 0.00 0.00 0.00
0.00 0.00 0.00 0.00 0.00 0.00 0.00 0.00 0.01 0.00 0.01 0.01 0.00 0.01 0.00 0.00 0.00 0.00 0.02 0.02 0.01 0.00 0.00 0.00 0.00 0.00 0.00 0.00 0.00 0.00 0.00 0.01 0.01 0.01 0.02 0.06 0.06 0.03 0.03 0.04 0.01 0.00 0.00 0.00
0.00 0.00 0.00 0.00 0.00 0.00 0.00 0.00 0.02 0.00 0.00 0.00 0.00 0.00 0.00 0.00 0.00 0.00 0.00 0.01 0.01 0.00 0.00 0.00 0.00 0.00 0.00 0.00 0.00 0.00 0.00 0.02 0.00 0.01 0.05 0.05 0.01 0.02 0.04 0.01 0.00 0.00 0.00 0.00
0.00 0.00 0.00 0.00 0.00 0.00 0.00 0.01 0.00 0.00 0.00 0.00 0.00 0.00 0.00 0.01 0.00 0.00 0.00 0.01 0.01 0.00 0.01 0.00 0.00 0.00 0.00 0.00 0.00 0.00 0.00 0.02 0.01 0.02 0.03 0.05 0.06 0.04 0.00 0.00 0.00 0.00 0.00 0.00
0.00 0.00 0.00 0.00 0.00 0.00 0.00 0.00 0.00 0.00 0.00 0.00 0.00 0.00 0.00 0.02 0.02 0.02 0.03 0.04 0.03 0.03 0.00 0.00 0.00 0.00 0.00 0.00 0.00 0.00 0.00 0.00 0.02 0.02 0.02 0.05 0.07 0.02 0.02 0.00 0.00 0.00 0.00 0.00
0.00 0.00 0.00 0.00 0.00 0.00 0.00 0.00 0.00 0.00 0.00 0.00 0.00 0.00 0.00 0.01 0.00 0.00 0.01 0.05 0.09 0.09 0.06 0.07 0.00 0.00 0.00 0.00 0.00 0.00 0.01 0.00 0.01 0.02 0.10 0.14 0.09 0.02 0.02 0.00 0.00 0.00 0.01 0.02
0.00 0.00 0.00 0.00 0.00 0.00 0.00 0.00 0.00 0.00 0.00 0.00 0.00 0.00 0.01 0.00 0.00 0.01 0.07 0.06 0.06 0.15 0.02 0.05 0.00 0.00 0.00 0.00 0.00 0.01 0.13 0.35 0.43 0.37 0.28 0.21 0.11 0.02 0.00 0.01 0.01 0.06 0.08 0.04
0.00 0.00 0.00 0.01 0.01 0.00 0.00 0.00 0.00 0.00 0.00 0.00 0.00 0.02 0.05 0.01 0.01 0.01 0.02 0.01 0.02 0.22 0.04 0.00 0.00 0.00 0.00 0.00 0.00 0.06 0.37 0.60 0.58 0.64 0.66 0.55 0.22 0.02 0.02 0.08 0.06 0.08 0.13 0.12
0.00 0.00 0.00 0.00 0.00 0.00 0.00 0.00 0.00 0.00 0.00 0.01 0.02 0.08 0.12 0.16 0.05 0.00 0.03 0.04 0.09 0.14 0.05 0.05 0.06 0.02 0.00 0.00 0.11 0.55 1.26 1.72 2.00 1.71 1.25 0.76 0.18 0.05 0.11 0.11 0.11 0.21 0.19 0.08
0.00 0.00 0.00 0.00 0.00 0.00 0.00 0.00 0.00 0.00 0.00 0.00 0.00 0.00 0.02 0.04 0.00 0.00 0.00 0.01 0.05 0.10 0.02 0.06 0.11 0.00 0.00 0.01 0.55 1.60 2.58 4.14 3.41 3.21 1.42 0.59 0.25 0.28 0.24 0.28 0.31 0.23 0.08 0.03
0.00 0.00 0.00 0.00 0.00 0.00 0.00 0.00 0.00 0.00 0.00 0.00 0.00 0.00 0.00 0.03 0.13 0.03 0.00 0.00 0.00 0.00 0.00 0.01 0.01 0.01 0.02 0.33 0.96 1.58 2.12 1.66 0.99 0.54 0.20 0.22 0.37 0.35 0.30 0.40 0.22 0.09 0.05 0.03
0.00 0.00 0.00 0.00 0.00 0.01 0.00 0.00 0.00 0.00 0.00 0.00 0.00 0.00 0.00 0.09 0.14 0.00 0.00 0.00 0.00 0.00 0.03 0.19 0.26 0.07 0.13 0.50 1.10 1.94 1.48 0.74 0.58 0.55 0.48 0.42 0.46 0.54 0.58 0.32 0.14 0.05 0.03 0.02
0.00 0.00 0.00 0.00 0.01 0.02 0.00 0.00 0.00 0.00 0.00 0.00 0.00 0.00 0.01 0.01 0.01 0.02 0.00 0.00 0.00 0.03 0.17 0.24 0.09 0.05 0.24 0.79 1.55 1.30 1.13 1.24 0.63 0.47 0.39 0.49 0.50 0.39 0.21 0.09 0.03 0.02 0.01 0.01
0.01 0.01 0.00 0.00 0.00 0.00 0.00 0.00 0.00 0.00 0.00 0.00 0.00 0.00 0.00 0.01 0.09 0.28 0.06 0.00 0.00 0.03 0.18 0.23 0.09 0.07 0.37 0.74 1.15 1.36 1.09 0.50 0.48 0.58 0.42 0.23 0.12 0.15 0.07 0.02 0.00 0.00 0.00 0.00
0.00 0.00 0.00 0.00 0.00 0.00 0.02 0.00 0.00 0.01 0.03 0.01 0.01 0.00 0.00 0.01 0.03 0.08 0.05 0.05 0.05 0.16 0.23 0.18 0.13 0.30 0.70 1.14 0.84 0.73 0.64 0.56 0.38 0.13 0.06 0.06 0.10 0.08 0.04 0.00 0.00 0.00 0.00 0.00
0.01 0.01 0.01 0.00 0.00 0.00 0.00 0.02 0.01 0.01 0.08 0.13 0.09 0.04 0.02 0.03 0.02 0.01 0.02 0.03 0.07 0.17 0.38 0.35 0.53 0.78 0.94 0.96 0.55 0.34 0.29 0.17 0.08 0.04 0.05 0.03 0.05 0.03 0.00 0.00 0.00 0.00 0.00 0.00
0.05 0.05 0.02 0.02 0.03 0.07 0.02 0.07 0.10 0.06 0.13 0.41 0.80 0.50 0.20 0.05 0.01 0.02 0.02 0.04 0.07 0.08 0.19 0.34 0.48 0.34 0.25 0.14 0.07 0.03 0.03 0.02 0.01 0.05 0.06 0.02 0.03 0.00 0.00 0.00 0.00 0.00 0.00 0.00
0.14 0.09 0.04 0.09 0.26 0.26 0.03 0.03 0.13 0.24 0.31 0.12 0.17 0.27 0.27 0.12 0.07 0.02 0.01 0.05 0.08 0.12 0.08 0.11 0.10 0.06 0.02 0.01 0.00 0.00 0.01 0.00 0.02 0.03 0.01 0.00 0.00 0.00 0.00 0.00 0.00 0.00 0.00 0.00
0.22 0.11 0.05 0.01 0.02 0.05 0.03 0.01 0.01 0.01 0.01 0.01 0.03 0.01 0.00 0.01 0.02 0.03 0.03 0.05 0.08 0.06 0.08 0.06 0.03 0.01 0.01 0.00 0.00 0.00 0.00 0.00 0.01 0.00 0.00 0.00 0.00 0.00 0.00 0.00 0.00 0.00 0.00 0.00
0.07 0.07 0.05 0.09 0.21 0.06 0.02 0.03 0.05 0.06 0.09 0.09 0.06 0.01 0.01 0.00 0.00 0.00 0.01 0.03 0.06 0.08 0.06 0.05 0.02 0.01 0.00 0.00 0.00 0.00 0.00 0.00 0.00 0.00 0.00 0.00 0.00 0.00 0.00 0.00 0.00 0.00 0.00 0.00

GFSCGP_prec_precacc24_291.txt.gz
Total_Precipitation_Accumulation
0.00 0.00 0.00 0.00 0.00 0.00 0.00 0.00 0.00 0.00 0.00 0.00 0.00 0.00 0.00 0.00 0.00 0.00 0.02 0.36 0.42 0.07 0.02 0.01 0.00 0.02 0.06 0.16 0.17 0.19 0.08 0.01 0.06 0.10 0.07 0.06 0.25 0.26 0.27 0.37 0.28 0.19 0.07 0.13
0.00 0.00 0.00 0.00 0.00 0.00 0.00 0.00 0.00 0.00 0.00 0.00 0.00 0.00 0.00 0.00 0.00 0.00 0.00 0.05 0.28 0.10 0.02 0.00 0.00 0.01 0.01 0.05 0.09 0.14 0.08 0.04 0.08 0.06 0.05 0.20 0.27 0.55 0.45 0.45 0.27 0.19 0.12 0.18
0.00 0.00 0.00 0.00 0.00 0.00 0.00 0.00 0.00 0.00 0.00 0.00 0.00 0.00 0.00 0.00 0.00 0.00 0.00 0.02 0.12 0.09 0.00 0.00 0.00 0.00 0.01 0.01 0.03 0.07 0.07 0.04 0.01 0.05 0.07 0.17 0.60 0.89 0.72 0.28 0.19 0.14 0.10 0.19
0.00 0.00 0.00 0.00 0.00 0.01 0.02 0.01 0.00 0.00 0.00 0.00 0.00 0.00 0.00 0.01 0.03 0.00 0.00 0.00 0.08 0.19 0.01 0.02 0.01 0.00 0.00 0.01 0.02 0.03 0.03 0.01 0.00 0.00 0.14 0.31 0.45 0.43 0.24 0.10 0.15 0.15 0.08 0.18
0.00 0.00 0.00 0.00 0.00 0.00 0.01 0.00 0.00 0.00 0.00 0.00 0.00 0.00 0.00 0.00 0.03 0.04 0.00 0.00 0.11 0.54 0.16 0.07 0.01 0.01 0.01 0.01 0.01 0.02 0.00 0.00 0.00 0.00 0.13 0.21 0.22 0.21 0.16 0.22 0.17 0.12 0.11 0.15
0.00 0.00 0.00 0.00 0.00 0.00 0.00 0.01 0.00 0.00 0.00 0.00 0.00 0.00 0.00 0.00 0.11 0.05 0.00 0.02 0.06 0.36 0.14 0.04 0.00 0.00 0.03 0.01 0.01 0.01 0.00 0.00 0.01 0.01 0.01 0.06 0.13 0.16 0.22 0.16 0.10 0.06 0.03 0.03
0.00 0.00 0.00 0.00 0.00 0.00 0.00 0.00 0.00 0.00 0.00 0.00 0.00 0.01 0.00 0.00 0.01 0.00 0.01 0.04 0.02 0.01 0.01 0.01 0.00 0.00 0.00 0.00 0.00 0.00 0.00 0.00 0.00 0.01 0.01 0.02 0.06 0.09 0.10 0.06 0.03 0.00 0.00 0.00
0.00 0.00 0.00 0.00 0.00 0.00 0.00 0.00 0.01 0.00 0.01 0.01 0.00 0.01 0.00 0.00 0.00 0.00 0.02 0.02 0.01 0.00 0.00 0.00 0.00 0.00 0.00 0.00 0.00 0.00 0.00 0.01 0.01 0.02 0.01 0.06 0.06 0.05 0.04 0.05 0.01 0.00 0.00 0.00
0.00 0.00 0.00 0.00 0.00 0.00 0.00 0.00 0.02 0.00 0.00 0.00 0.00 0.05 0.00 0.00 0.00 0.00 0.00 0.01 0.01 0.00 0.00 0.00 0.00 0.00 0.00 0.00 0.00 0.00 0.00 0.01 0.00 0.01 0.05 0.05 0.01 0.03 0.06 0.01 0.00 0.00 0.00 0.00
0.00 0.00 0.00 0.00 0.00 0.00 0.00 0.01 0.00 0.00 0.00 0.00 0.00 0.01 0.00 0.01 0.00 0.00 0.00 0.01 0.01 0.00 0.01 0.00 0.00 0.00 0.00 0.00 0.00 0.00 0.00 0.01 0.00 0.02 0.03 0.05 0.06 0.08 0.04 0.00 0.00 0.00 0.00 0.00
0.00 0.00 0.00 0.00 0.00 0.00 0.00 0.00 0.00 0.00 0.00 0.00 0.00 0.00 0.00 0.02 0.02 0.02 0.03 0.04 0.03 0.03 0.00 0.00 0.00 0.00 0.00 0.00 0.00 0.00 0.00 0.00 0.02 0.02 0.02 0.05 0.08 0.08 0.04 0.00 0.00 0.00 0.00 0.02
0.00 0.00 0.00 0.00 0.00 0.00 0.00 0.00 0.00 0.00 0.00 0.00 0.00 0.00 0.00 0.01 0.00 0.00 0.01 0.05 0.09 0.09 0.06 0.07 0.00 0.00 0.00 0.00 0.00 0.00 0.01 0.00 0.01 0.03 0.10 0.14 0.19 0.14 0.13 0.01 0.00 0.00 0.03 0.06
0.00 0.00 0.00 0.00 0.00 0.00 0.00 0.00 0.00 0.00 0.00 0.00 0.00 0.00 0.01 0.00 0.00 0.01 0.07 0.06 0.06 0.15 0.02 0.05 0.00 0.00 0.00 0.00 0.00 0.01 0.13 0.35 0.43 0.45 0.32 0.30 0.24 0.10 0.02 0.01 0.01 0.07 0.13 0.11
0.00 0.00 0.00 0.01 0.01 0.00 0.00 0.00 0.00 0.00 0.00 0.00 0.00 0.01 0.05 0.01 0.01 0.01 0.02 0.01 0.02 0.22 0.04 0.00 0.00 0.00 0.00 0.00 0.02 0.07 0.40 0.64 0.60 0.64 0.67 0.60 0.39 0.18 0.04 0.08 0.06 0.11 0.18 0.16
0.00 0.00 0.00 0.00 0.00 0.00 0.00 0.00 0.00 0.00 0.00 0.00 0.00 0.02 0.10 0.16 0.05 0.00 0.03 0.04 0.09 0.14 0.05 0.05 0.06 0.02 0.01 0.00 0.13 0.66 1.33 1.77 2.01 1.71 1.27 0.86 0.49 0.21 0.19 0.14 0.10 0.27 0.29 0.10
0.00 0.00 0.00 0.00 0.00 0.00 0.00 0.00 0.00 0.00 0.00 0.00 0.00 0.00 0.02 0.04 0.00 0.00 0.00 0.01 0.05 0.10 0.02 0.06 0.11 0.00 0.00 0.01 0.55 1.61 2.59 4.17 3.41 3.21 1.44 0.64 0.49 0.52 0.45 0.48 0.34 0.26 0.20 0.08
0.00 0.00 0.00 0.00 0.00 0.00 0.00 0.00 0.00 0.00 0.00 0.00 0.00 0.00 0.00 0.03 0.13 0.03 0.00 0.00 0.00 0.00 0.00 0.00 0.00 0.01 0.03 0.33 0.97 1.62 2.19 1.70 0.99 0.54 0.20 0.22 0.36 0.38 0.36 0.43 0.27 0.17 0.13 0.09
0.00 0.00 0.00 0.00 0.00 0.01 0.00 0.00 0.00 0.00 0.00 0.00 0.00 0.00 0.00 0.09 0.14 0.00 0.00 0.00 0.00 0.00 0.00 0.00 0.02 0.03 0.13 0.51 1.14 1.97 1.53 0.79 0.60 0.56 0.48 0.42 0.44 0.47 0.60 0.38 0.27 0.14 0.09 0.04
0.00 0.00 0.00 0.00 0.01 0.02 0.00 0.00 0.00 0.00 0.00 0.00 0.00 0.00 0.01 0.01 0.01 0.02 0.00 0.00 0.00 0.00 0.00 0.04 0.05 0.05 0.24 0.79 1.54 1.27 1.15 1.29 0.64 0.47 0.37 0.46 0.48 0.41 0.35 0.23 0.09 0.03 0.01 0.00
0.01 0.01 0.00 0.00 0.00 0.00 0.00 0.00 0.00 0.00 0.00 0.00 0.00 0.00 0.00 0.01 0.09 0.28 0.06 0.00 0.00 0.01 0.09 0.11 0.05 0.07 0.36 0.72 1.06 1.30 1.08 0.47 0.43 0.52 0.37 0.23 0.13 0.20 0.14 0.06 0.03 0.01 0.00 0.00
0.00 0.00 0.00 0.00 0.00 0.00 0.02 0.00 0.00 0.01 0.03 0.01 0.01 0.00 0.00 0.01 0.03 0.08 0.05 0.05 0.03 0.05 0.05 0.04 0.06 0.26 0.68 1.12 0.74 0.53 0.46 0.48 0.36 0.13 0.06 0.08 0.11 0.14 0.12 0.04 0.01 0.00 0.00 0.00
0.01 0.01 0.01 0.00 0.00 0.01 0.00 0.02 0.01 0.01 0.08 0.13 0.09 0.04 0.02 0.03 0.02 0.01 0.01 0.03 0.03 0.03 0.07 0.11 0.32 0.62 0.81 0.87 0.47 0.23 0.23 0.16 0.08 0.04 0.06 0.05 0.07 0.07 0.02 0.00 0.00 0.00 0.00 0.00
0.05 0.05 0.02 0.02 0.03 0.11 0.04 0.07 0.10 0.06 0.13 0.41 0.80 0.50 0.20 0.05 0.01 0.02 0.02 0.04 0.06 0.07 0.09 0.18 0.36 0.29 0.23 0.12 0.06 0.03 0.03 0.02 0.02 0.06 0.07 0.06 0.04 0.01 0.00 0.00 0.00 0.00 0.00 0.00
0.14 0.09 0.03 0.04 0.26 0.27 0.03 0.03 0.13 0.24 0.31 0.12 0.17 0.27 0.27 0.12 0.07 0.02 0.02 0.05 0.08 0.12 0.08 0.10 0.10 0.07 0.02 0.01 0.00 0.00 0.01 0.01 0.03 0.04 0.03 0.01 0.00 0.00 0.00 0.00 0.00 0.00 0.00 0.00
0.22 0.11 0.05 0.01 0.02 0.05 0.03 0.01 0.01 0.01 0.01 0.01 0.03 0.01 0.00 0.01 0.02 0.03 0.03 0.05 0.08 0.07 0.09 0.09 0.05 0.05 0.04 0.01 0.00 0.01 0.01 0.00 0.01 0.01 0.00 0.00 0.00 0.00 0.00 0.00 0.00 0.00 0.00 0.00
0.07 0.07 0.05 0.09 0.21 0.06 0.04 0.03 0.05 0.06 0.09 0.09 0.06 0.01 0.01 0.00 0.00 0.00 0.01 0.03 0.06 0.08 0.06 0.05 0.05 0.05 0.04 0.04 0.02 0.01 0.00 0.00 0.00 0.00 0.00 0.00 0.00 0.00 0.00 0.00 0.00 0.00 0.00 0.00